This demonstration page uses our WeatherBlox Daily Observations layout. Learn more.

Left ArrowRight Arrow

40.92945, -100.16068

Hourly Observations for May 16, 2021

Temp ( °F °C ) Dew Point ( °F °C ) Humidity (%) Winds ( mph kmh ) Pressure ( in mb ) Visibility ( mi km ) Precip ( " mm )
12:15 am 00:15 Cloudy with Heavy Thunderstorms 63 17.3 59 15.1 87 87 SE 13 20 29.95 1014 5 8 0.06 1.52
12:35 am 00:35 Cloudy with Rain 62 16.7 60 15.5 93 93 E 10 17 29.94 1014 7 11 0.15 3.81
12:55 am 00:55 Cloudy with Light Rain 62 16.7 60 15.5 93 93 E 8 13 29.94 1014 10 16 0.17 4.32
1:15 am 01:15 Cloudy with Light Rain 62 16.6 60 15.3 92 92 ENE 10 17 29.94 1014 10 16 N/A
1:35 am 01:35 Cloudy with Light Rain 62 16.6 59 15.1 91 91 NE 14 22 29.94 1014 10 16 0.01 0.25
1:55 am 01:55 Cloudy with Light Rain 62 16.5 59 15.1 92 92 E 8 13 29.94 1014 10 16 0.02 0.51
2:15 am 02:15 Cloudy 62 16.5 59 15.1 92 92 ENE 12 19 29.93 1014 10 16 N/A
2:35 am 02:35 Cloudy with Nearby Thunderstorms 62 16.5 59 15.1 92 92 ENE 7 11 29.93 1014 10 16 N/A
2:55 am 02:55 Cloudy 62 16.5 59 15.1 92 92 ENE 6 9 29.93 1014 10 16 N/A
3:15 am 03:15 Cloudy 62 16.5 59 15 91 91 ENE 8 13 29.93 1014 10 16 N/A
3:35 am 03:35 Cloudy 62 16.7 59 15 90 90 E 6 9 29.92 1013 10 16 N/A
3:55 am 03:55 Cloudy with Rain 62 16.8 59 15 89 89 E 5 7 29.92 1013 10 16 N/A
4:15 am 04:15 Cloudy with Heavy Rain 61 16.3 59 15.2 93 93 SSE 7 11 29.93 1014 3 5 0.11 2.79
4:35 am 04:35 Cloudy with Heavy Rain 61 16 59 15.2 95 95 E 5 7 29.94 1014 4 6 0.21 5.33
4:55 am 04:55 Cloudy with Rain 61 16 59 15.1 94 94 ENE 3 6 29.94 1014 4 6 0.28 7.11
5:15 am 05:15 Cloudy with Heavy Rain 60 15.7 59 15.1 96 96 NE 3 6 29.93 1014 3 5 0.06 1.52
5:35 am 05:35 Cloudy with Rain 60 15.5 58 14.7 95 95 ESE 14 22 29.90 1013 4 6 0.17 4.32
5:55 am 05:55 Cloudy with Light Rain 60 15.5 58 14.6 94 94 E 6 9 29.92 1013 7 11 0.19 4.83
6:15 am 06:15 Cloudy with Light Rain 60 15.3 58 14.5 95 95 ENE 10 17 29.91 1013 7 11 0.01 0.25
6:35 am 06:35 Cloudy 59 15 57 13.8 93 93 ENE 12 19 29.90 1012 10 16 0.01 0.25
6:55 am 06:55 Cloudy 59 15 57 14 94 94 E 7 11 29.92 1013 10 16 0.01 0.25
7:15 am 07:15 Cloudy with Mist and Fog 60 15.3 58 14.7 96 96 E 7 11 29.91 1013 5 8 N/A
7:35 am 07:35 Cloudy with Light Rain 60 15.5 58 14.7 95 95 ESE 6 9 29.93 1014 5 8 0.03 0.76
7:55 am 07:55 Cloudy with Light Rain 60 15.3 58 14.6 96 96 SE 9 15 29.91 1013 4 6 0.10 2.54
8:15 am 08:15 Cloudy with Light Rain 60 15.3 58 14.3 94 94 SE 8 13 29.92 1013 10 16 0.01 0.25
8:35 am 08:35 Cloudy 59 15.2 58 14.5 96 96 SSE 8 13 29.92 1013 10 16 0.01 0.25
8:55 am 08:55 Cloudy with Light Rain 59 15.2 58 14.3 94 94 SE 7 11 29.93 1014 10 16 0.03 0.76
9:15 am 09:15 Cloudy with Drizzle 59 15.2 58 14.2 94 94 SSE 10 17 29.92 1013 10 16 N/A
9:35 am 09:35 Cloudy 60 15.4 58 14.3 93 93 SSE 9 15 29.92 1013 10 16 N/A
9:55 am 09:55 Cloudy 60 15.6 57 14.1 91 91 SE 9 15 29.93 1014 10 16 N/A
10:15 am 10:15 Cloudy 60 15.8 58 14.3 91 91 SSE 3 6 29.95 1014 10 16 N/A
10:35 am 10:35 Cloudy with Heavy Rain 60 15.3 58 14.2 93 93 N 3 6 29.98 1015 2 3 0.16 4.06
10:55 am 10:55 Cloudy with Light Rain 60 15.3 58 14.5 95 95 SE 8 13 29.95 1014 7 11 0.17 4.32
11:15 am 11:15 Cloudy 61 15.9 59 15.1 95 95 SSE 14 22 29.94 1014 10 16 N/A
11:35 am 11:35 Mostly Cloudy 63 17.1 60 15.5 90 90 S 15 24 29.91 1013 10 16 N/A
11:55 am 11:55 Mostly Cloudy 64 17.7 59 15.2 85 85 S 17 28 29.90 1013 10 16 0.01 0.25
12:15 pm 12:15 Mostly Cloudy 66 18.8 61 16.2 85 85 S 17 28 29.88 1012 10 16 N/A
12:35 pm 12:35 Partly Cloudy 66 19 60 15.7 81 81 S 20 31 29.88 1012 10 16 N/A
12:55 pm 12:55 Partly Cloudy 67 19.5 60 15.3 77 77 S 17 28 29.89 1012 10 16 N/A
1:15 pm 13:15 Mostly Cloudy 67 19.7 59 15 74 74 S 12 19 29.88 1012 10 16 N/A
1:35 pm 13:35 Mostly Cloudy 69 20.4 59 15.1 72 72 S 12 19 29.88 1012 10 16 N/A
1:55 pm 13:55 Cloudy 69 20.7 60 15.4 72 72 SSE 10 17 29.87 1011 10 16 N/A
2:15 pm 14:15 Cloudy 71 21.4 59 15.2 68 68 SSE 7 11 29.86 1011 10 16 N/A
2:35 pm 14:35 Mostly Cloudy 70 21.1 59 15 68 68 SSE 7 11 29.85 1011 10 16 N/A
2:55 pm 14:55 Cloudy 70 21.1 59 14.9 68 68 SSE 6 9 29.85 1011 10 16 N/A
3:15 pm 15:15 Cloudy 69 20.8 58 14.6 68 68 ENE 6 9 29.86 1011 10 16 N/A
3:35 pm 15:35 Cloudy 69 20.5 60 15.4 73 73 E 9 15 29.86 1011 10 16 N/A
3:55 pm 15:55 Cloudy 69 20.6 60 15.7 74 74 E 10 17 29.85 1011 10 16 N/A
4:15 pm 16:15 Cloudy 69 20.8 60 15.5 72 72 ESE 12 19 29.85 1011 10 16 N/A
4:35 pm 16:35 Mostly Cloudy 71 21.4 59 15.2 68 68 ESE 12 19 29.84 1011 10 16 N/A
4:55 pm 16:55 Cloudy 70 21.1 60 15.3 70 70 SE 9 15 29.84 1011 10 16 N/A
5:15 pm 17:15 Cloudy 69 20.8 60 15.6 72 72 E 10 17 29.84 1010 10 16 N/A
5:35 pm 17:35 Cloudy 69 20.7 60 15.7 73 73 E 8 13 29.85 1011 10 16 N/A
5:55 pm 17:55 Cloudy 70 21 61 16.1 74 74 E 9 15 29.84 1011 10 16 N/A
6:15 pm 18:15 Partly Cloudy 70 21.1 61 16.3 74 74 E 9 15 29.84 1011 10 16 N/A
6:35 pm 18:35 Mostly Cloudy 70 21 62 16.5 76 76 E 8 13 29.83 1010 10 16 N/A
6:55 pm 18:55 Cloudy 69 20.5 61 16.1 76 76 E 10 17 29.84 1010 10 16 N/A
7:15 pm 19:15 Cloudy with Thunderstorms 69 20.4 61 16.1 76 76 E 10 17 29.84 1010 10 16 N/A
7:35 pm 19:35 Cloudy 66 18.8 60 15.5 81 81 ENE 12 19 29.85 1011 10 16 N/A
7:55 pm 19:55 Cloudy 65 18.2 59 14.9 81 81 ENE 12 19 29.87 1011 10 16 N/A
8:15 pm 20:15 Cloudy 64 17.8 59 15.1 84 84 E 13 20 29.87 1012 10 16 N/A
8:35 pm 20:35 Cloudy 64 17.5 61 16 91 91 E 12 19 29.87 1012 10 16 N/A
8:55 pm 20:55 Cloudy 63 17.3 61 15.9 92 92 E 13 20 29.89 1012 10 16 N/A
9:15 pm 21:15 Mostly Cloudy 63 17.1 61 16 93 93 E 10 17 29.89 1012 10 16 N/A
9:35 pm 21:35 Mostly Cloudy 63 17.1 61 15.9 93 93 E 10 17 29.90 1012 7 11 N/A
9:55 pm 21:55 Cloudy 63 17 60 15.8 93 93 ESE 10 17 29.91 1013 7 11 N/A
10:15 pm 22:15 Cloudy 63 17 60 15.5 91 91 E 13 20 29.92 1013 10 16 N/A
10:35 pm 22:35 Mostly Cloudy 62 16.8 59 15.2 90 90 ESE 12 19 29.92 1013 10 16 N/A
10:55 pm 22:55 Mostly Cloudy 62 16.5 59 15.1 92 92 ESE 12 19 29.92 1013 10 16 N/A
11:15 pm 23:15 Cloudy 61 16.1 59 15 93 93 ESE 9 15 29.93 1013 10 16 N/A
11:35 pm 23:35 Cloudy 61 16 58 14.7 92 92 ESE 10 17 29.94 1014 10 16 N/A
11:55 pm 23:55 Cloudy 60 15.8 58 14.5 92 92 ESE 12 19 29.95 1014 10 16 N/A

Powered by AerisWeather